This is the latest recevied weather packets stored in our database for station/object LU3HGB-WX. If no packets are shown the sender has not sent any weather packets the latest 10 day(s).
| Time | Temp. | Humidity | Pressure | Rain* | Wind** | Luminosity | Snow |
|---|---|---|---|---|---|---|---|
| 1777845759 | 15° C | 53% | 1013 hPa | 0 mm | - | 0 W/m² | - |
| 1777845460 | 15° C | 53% | 1013 hPa | 0 mm | - | 1 W/m² | - |
| 1777845159 | 15° C | 52% | 1013 hPa | 0 mm | - | 2 W/m² | - |
| 1777844862 | 15.56° C | 54% | 1013 hPa | 0 mm | - | 3 W/m² | - |
| 1777844559 | 15.56° C | 51% | 1013 hPa | 0 mm | - | 6 W/m² | - |
| 1777844259 | 16.11° C | 51% | 1013 hPa | 0 mm | - | 9 W/m² | - |
| 1777843959 | 16.11° C | 52% | 1013 hPa | 0 mm | - | 13 W/m² | - |
| 1777843660 | 16.67° C | 52% | 1013 hPa | 0 mm | - | 17 W/m² | - |
| 1777843359 | 16.67° C | 48% | 1013 hPa | 0 mm | - | 21 W/m² | - |
| 1777843059 | 17.22° C | 47% | 1013 hPa | 0 mm | - | 26 W/m² | - |
| 1777842759 | 17.78° C | 47% | 1013 hPa | 0 mm | - | 28 W/m² | - |
| 1777842459 | 17.78° C | 45% | 1013 hPa | 0 mm | - | 31 W/m² | - |
| 1777842159 | 18.33° C | 45% | 1013 hPa | 0 mm | - | 33 W/m² | - |
| 1777841861 | 18.33° C | 43% | 1013 hPa | 0 mm | - | 35 W/m² | - |
| 1777841559 | 18.89° C | 42% | 1013 hPa | 0 mm | - | 37 W/m² | - |
| 1777841259 | 19.44° C | 41% | 1013 hPa | 0 mm | - | 68 W/m² | - |
| 1777840959 | 19.44° C | 41% | 1013 hPa | 0 mm | - | 126 W/m² | - |
| 1777840659 | 19.44° C | 40% | 1012 hPa | 0 mm | - | 142 W/m² | - |
| 1777840359 | 20° C | 39% | 1012 hPa | 0 mm | - | 158 W/m² | - |
| 1777840060 | 20° C | 39% | 1012 hPa | 0 mm | - | 175 W/m² | - |
| 1777839760 | 20° C | 38% | 1012 hPa | 0 mm | - | 190 W/m² | - |
| 1777839459 | 20.56° C | 38% | 1012 hPa | 0 mm | - | 210 W/m² | - |
| 1777839160 | 20.56° C | 38% | 1012 hPa | 0 mm | - | 224 W/m² | - |
| 1777838859 | 20.56° C | 37% | 1012 hPa | 0 mm | - | 242 W/m² | - |
| 1777838559 | 20.56° C | 37% | 1012 hPa | 0 mm | - | 255 W/m² | - |
* Rain latest hour (hover to see other rain measurements)
** Current wind speed in m/s (hover to see current wind gust speed)